Year,Month,Day,Hour,Minute,Value (Times are PST for temperature in C)
2018,06,21,00,00,19.00
2018,06,21,00,01,19.10
2018,06,21,00,02,19.10
2018,06,21,00,03,19.10
2018,06,21,00,04,19.20
2018,06,21,00,05,19.20
2018,06,21,00,06,19.20
2018,06,21,00,07,19.20
2018,06,21,00,08,19.30
2018,06,21,00,09,19.30
2018,06,21,00,10,19.30
2018,06,21,00,11,19.30
2018,06,21,00,12,19.30
2018,06,21,00,13,19.40
2018,06,21,00,14,19.40
2018,06,21,00,15,19.40
2018,06,21,00,16,19.40
2018,06,21,00,17,19.40
2018,06,21,00,18,19.40
2018,06,21,00,19,19.40
2018,06,21,00,20,19.40
2018,06,21,00,21,19.30
2018,06,21,00,22,19.30
2018,06,21,00,23,19.30
2018,06,21,00,24,19.30
2018,06,21,00,25,19.30
2018,06,21,00,26,19.30
2018,06,21,00,27,19.20
2018,06,21,00,28,19.20
2018,06,21,00,29,19.20
2018,06,21,00,30,19.10
2018,06,21,00,31,19.10
2018,06,21,00,32,19.10
2018,06,21,00,33,19.10
2018,06,21,00,34,19.10
2018,06,21,00,35,19.10
2018,06,21,00,36,19.10
2018,06,21,00,37,19.10
2018,06,21,00,38,19.00
2018,06,21,00,39,19.00
2018,06,21,00,40,18.90
2018,06,21,00,41,18.90
2018,06,21,00,42,18.90
2018,06,21,00,43,18.90
2018,06,21,00,44,18.90
2018,06,21,00,45,18.90
2018,06,21,00,46,18.90
2018,06,21,00,47,18.80
2018,06,21,00,48,18.90
2018,06,21,00,49,18.90
2018,06,21,00,50,18.90
2018,06,21,00,51,18.90
2018,06,21,00,52,19.00
2018,06,21,00,53,19.00
2018,06,21,00,54,19.10
2018,06,21,00,55,19.10
2018,06,21,00,56,19.20
2018,06,21,00,57,19.20
2018,06,21,00,58,19.20
2018,06,21,00,59,19.20
2018,06,21,01,00,19.20
2018,06,21,01,01,19.20
2018,06,21,01,02,19.20
2018,06,21,01,03,19.20
2018,06,21,01,04,19.20
2018,06,21,01,05,19.20
2018,06,21,01,06,19.20
2018,06,21,01,07,19.20
2018,06,21,01,08,19.10
2018,06,21,01,09,19.10
2018,06,21,01,10,19.10
2018,06,21,01,11,19.10
2018,06,21,01,12,19.10
2018,06,21,01,13,19.10
2018,06,21,01,14,19.10
2018,06,21,01,15,19.00
2018,06,21,01,16,19.00
2018,06,21,01,17,19.00
2018,06,21,01,18,19.00
2018,06,21,01,19,19.00
2018,06,21,01,20,19.00
2018,06,21,01,21,19.10
2018,06,21,01,22,19.10
2018,06,21,01,23,19.10
2018,06,21,01,24,19.20
2018,06,21,01,25,19.20
2018,06,21,01,26,19.20
2018,06,21,01,27,19.20
2018,06,21,01,28,19.20
2018,06,21,01,29,19.20
2018,06,21,01,30,19.20
2018,06,21,01,31,19.20
2018,06,21,01,32,19.20
2018,06,21,01,33,19.20
2018,06,21,01,34,19.20
2018,06,21,01,35,19.20
2018,06,21,01,36,19.20
2018,06,21,01,37,19.20
2018,06,21,01,38,19.10
2018,06,21,01,39,19.10
2018,06,21,01,40,19.10
2018,06,21,01,41,19.10
2018,06,21,01,42,19.10
2018,06,21,01,43,19.10
2018,06,21,01,44,19.10
2018,06,21,01,45,19.00
2018,06,21,01,46,19.00
2018,06,21,01,47,19.00
2018,06,21,01,48,18.90
2018,06,21,01,49,18.90
2018,06,21,01,50,18.90
2018,06,21,01,51,18.90
2018,06,21,01,52,18.90
2018,06,21,01,53,18.90
2018,06,21,01,54,18.90
2018,06,21,01,55,18.90
2018,06,21,01,56,18.90
2018,06,21,01,57,18.80
2018,06,21,01,58,18.80
2018,06,21,01,59,18.80
2018,06,21,02,00,18.80
2018,06,21,02,01,18.70
2018,06,21,02,02,18.70
2018,06,21,02,03,18.70
2018,06,21,02,04,18.70
2018,06,21,02,05,18.70
2018,06,21,02,06,18.70
2018,06,21,02,07,18.70
2018,06,21,02,08,18.60
2018,06,21,02,09,18.70
2018,06,21,02,10,18.60
2018,06,21,02,11,18.60
2018,06,21,02,12,18.60
2018,06,21,02,13,18.60
2018,06,21,02,14,18.60
2018,06,21,02,15,18.60
2018,06,21,02,16,18.50
2018,06,21,02,17,18.50
2018,06,21,02,18,18.50
2018,06,21,02,19,18.40
2018,06,21,02,20,18.40
2018,06,21,02,21,18.40
2018,06,21,02,22,18.30
2018,06,21,02,23,18.30
2018,06,21,02,24,18.30
2018,06,21,02,25,18.30
2018,06,21,02,26,18.30
2018,06,21,02,27,18.20
2018,06,21,02,28,18.20
2018,06,21,02,29,18.20
2018,06,21,02,30,18.20
2018,06,21,02,31,18.20
2018,06,21,02,32,18.20
2018,06,21,02,33,18.20
2018,06,21,02,34,18.20
2018,06,21,02,35,18.20
2018,06,21,02,36,18.20
2018,06,21,02,37,18.20
2018,06,21,02,38,18.20
2018,06,21,02,39,18.20
2018,06,21,02,40,18.20
2018,06,21,02,41,18.20
2018,06,21,02,42,18.20
2018,06,21,02,43,18.20
2018,06,21,02,44,18.20
2018,06,21,02,45,18.20
2018,06,21,02,46,18.20
2018,06,21,02,47,18.20
2018,06,21,02,48,18.20
2018,06,21,02,49,18.20
2018,06,21,02,50,18.10
2018,06,21,02,51,18.10
2018,06,21,02,52,18.10
2018,06,21,02,53,18.00
2018,06,21,02,54,18.00
2018,06,21,02,55,18.00
2018,06,21,02,56,18.00
2018,06,21,02,57,18.00
2018,06,21,02,58,18.00
2018,06,21,02,59,18.00
2018,06,21,03,00,17.90
2018,06,21,03,01,17.90
2018,06,21,03,02,17.90
2018,06,21,03,03,18.00
2018,06,21,03,04,18.00
2018,06,21,03,05,18.00
2018,06,21,03,06,18.00
2018,06,21,03,07,18.00
2018,06,21,03,08,18.00
2018,06,21,03,09,18.00
2018,06,21,03,10,18.00
2018,06,21,03,11,18.00
2018,06,21,03,12,17.90
2018,06,21,03,13,17.90
2018,06,21,03,14,17.90
2018,06,21,03,15,17.90
2018,06,21,03,16,17.90
2018,06,21,03,17,17.90
2018,06,21,03,18,17.90
2018,06,21,03,19,17.90
2018,06,21,03,20,17.90
2018,06,21,03,21,17.90
2018,06,21,03,22,17.80
2018,06,21,03,23,17.80
2018,06,21,03,24,17.80
2018,06,21,03,25,17.80
2018,06,21,03,26,17.80
2018,06,21,03,27,17.80
2018,06,21,03,28,17.80
2018,06,21,03,29,17.80
2018,06,21,03,30,17.80
2018,06,21,03,31,17.70
2018,06,21,03,32,17.70
2018,06,21,03,33,17.70
2018,06,21,03,34,17.60
2018,06,21,03,35,17.60
2018,06,21,03,36,17.60
2018,06,21,03,37,17.60
2018,06,21,03,38,17.60
2018,06,21,03,39,17.60
2018,06,21,03,40,17.60
2018,06,21,03,41,17.60
2018,06,21,03,42,17.60
2018,06,21,03,43,17.60
2018,06,21,03,44,17.60
2018,06,21,03,45,17.60
2018,06,21,03,46,17.60
2018,06,21,03,47,17.50
2018,06,21,03,48,17.50
2018,06,21,03,49,17.50
2018,06,21,03,50,17.50
2018,06,21,03,51,17.40
2018,06,21,03,52,17.40
2018,06,21,03,53,17.40
2018,06,21,03,54,17.40
2018,06,21,03,55,17.40
2018,06,21,03,56,17.40
2018,06,21,03,57,17.40
2018,06,21,03,58,17.40
2018,06,21,03,59,17.40
2018,06,21,04,00,17.30
2018,06,21,04,01,17.30
2018,06,21,04,02,17.30
2018,06,21,04,03,17.30
2018,06,21,04,04,17.30
2018,06,21,04,05,17.30
2018,06,21,04,06,17.30
2018,06,21,04,07,17.30
2018,06,21,04,08,17.30
2018,06,21,04,09,17.30
2018,06,21,04,10,17.30
2018,06,21,04,11,17.30
2018,06,21,04,12,17.30
2018,06,21,04,13,17.20
2018,06,21,04,14,17.20
2018,06,21,04,15,17.20
2018,06,21,04,16,17.20
2018,06,21,04,17,17.20
2018,06,21,04,18,17.20
2018,06,21,04,19,17.20
2018,06,21,04,20,17.20
2018,06,21,04,21,17.10
2018,06,21,04,22,17.10
2018,06,21,04,23,17.10
2018,06,21,04,24,17.10
2018,06,21,04,25,17.10
2018,06,21,04,26,17.10
2018,06,21,04,27,17.10
2018,06,21,04,28,17.10
2018,06,21,04,29,17.10
2018,06,21,04,30,17.10
2018,06,21,04,31,17.00
2018,06,21,04,32,17.00
2018,06,21,04,33,17.00
2018,06,21,04,34,17.00
2018,06,21,04,35,16.90
2018,06,21,04,36,16.90
2018,06,21,04,37,16.90
2018,06,21,04,38,16.90
2018,06,21,04,39,16.90
2018,06,21,04,40,16.80
2018,06,21,04,41,16.80
2018,06,21,04,42,16.80
2018,06,21,04,43,16.80
2018,06,21,04,44,16.80
2018,06,21,04,45,16.80
2018,06,21,04,46,16.70
2018,06,21,04,47,16.70
2018,06,21,04,48,16.70
2018,06,21,04,49,16.70
2018,06,21,04,50,16.70
2018,06,21,04,51,16.70
2018,06,21,04,52,16.70
2018,06,21,04,53,16.60
2018,06,21,04,54,16.60
2018,06,21,04,55,16.60
2018,06,21,04,56,16.60
2018,06,21,04,57,16.60
2018,06,21,04,58,16.50
2018,06,21,04,59,16.50
2018,06,21,05,00,16.50
2018,06,21,05,01,16.40
2018,06,21,05,02,16.40
2018,06,21,05,03,16.40
2018,06,21,05,04,16.40
2018,06,21,05,05,16.40
2018,06,21,05,06,16.30
2018,06,21,05,07,16.30
2018,06,21,05,08,16.30
2018,06,21,05,09,16.30
2018,06,21,05,10,16.30
2018,06,21,05,11,16.20
2018,06,21,05,12,16.20
2018,06,21,05,13,16.20
2018,06,21,05,14,16.20
2018,06,21,05,15,16.20
2018,06,21,05,16,16.20
2018,06,21,05,17,16.20
2018,06,21,05,18,16.20
2018,06,21,05,19,16.10
2018,06,21,05,20,16.10
2018,06,21,05,21,16.10
2018,06,21,05,22,16.10
2018,06,21,05,23,16.00
2018,06,21,05,24,16.00
2018,06,21,05,25,16.00
2018,06,21,05,26,16.00
2018,06,21,05,27,15.90
2018,06,21,05,28,15.90
2018,06,21,05,29,15.90
2018,06,21,05,30,15.90
2018,06,21,05,31,15.90
2018,06,21,05,32,15.80
2018,06,21,05,33,15.80
2018,06,21,05,34,15.80
2018,06,21,05,35,15.70
2018,06,21,05,36,15.70
2018,06,21,05,37,15.60
2018,06,21,05,38,15.60
2018,06,21,05,39,15.60
2018,06,21,05,40,15.50
2018,06,21,05,41,15.50
2018,06,21,05,42,15.50
2018,06,21,05,43,15.40
2018,06,21,05,44,15.40
2018,06,21,05,45,15.40
2018,06,21,05,46,15.40
2018,06,21,05,47,15.40
2018,06,21,05,48,15.40
2018,06,21,05,49,15.40
2018,06,21,05,50,15.40
2018,06,21,05,51,15.30
2018,06,21,05,52,15.40
2018,06,21,05,53,15.30
2018,06,21,05,54,15.30
2018,06,21,05,55,15.30
2018,06,21,05,56,15.40
2018,06,21,05,57,15.40
2018,06,21,05,58,15.40
2018,06,21,05,59,15.40
2018,06,21,06,00,15.40
2018,06,21,06,01,15.40
2018,06,21,06,02,15.40
2018,06,21,06,03,15.40
2018,06,21,06,04,15.40
2018,06,21,06,05,15.40
2018,06,21,06,06,15.40
2018,06,21,06,07,15.40
2018,06,21,06,08,15.40
2018,06,21,06,09,15.40
2018,06,21,06,10,15.40
2018,06,21,06,11,15.40
2018,06,21,06,12,15.40
2018,06,21,06,13,15.40
2018,06,21,06,14,15.40
2018,06,21,06,15,15.40
2018,06,21,06,16,15.40
2018,06,21,06,17,15.40
2018,06,21,06,18,15.40
2018,06,21,06,19,15.40
2018,06,21,06,20,15.40
2018,06,21,06,21,15.40
2018,06,21,06,22,15.40
2018,06,21,06,23,15.40
2018,06,21,06,24,15.40
2018,06,21,06,25,15.40
2018,06,21,06,26,15.40
2018,06,21,06,27,15.40
2018,06,21,06,28,15.40
2018,06,21,06,29,15.50
2018,06,21,06,30,15.50
2018,06,21,06,31,15.50
2018,06,21,06,32,15.50
2018,06,21,06,33,15.50
2018,06,21,06,34,15.50
2018,06,21,06,35,15.50
2018,06,21,06,36,15.50
2018,06,21,06,37,15.50
2018,06,21,06,38,15.60
2018,06,21,06,39,15.60
2018,06,21,06,40,15.60
2018,06,21,06,41,15.60
2018,06,21,06,42,15.70
2018,06,21,06,43,15.70
2018,06,21,06,44,15.70
2018,06,21,06,45,15.80
2018,06,21,06,46,15.80
2018,06,21,06,47,15.80
2018,06,21,06,48,15.80
2018,06,21,06,49,15.80
2018,06,21,06,50,15.80
2018,06,21,06,51,15.80
2018,06,21,06,52,15.90
2018,06,21,06,53,15.90
2018,06,21,06,54,15.90
2018,06,21,06,55,15.90
2018,06,21,06,56,15.90
2018,06,21,06,57,15.90
2018,06,21,06,58,15.90
2018,06,21,06,59,15.90
2018,06,21,07,00,15.90
2018,06,21,07,01,15.90
2018,06,21,07,02,15.90
2018,06,21,07,03,15.90
2018,06,21,07,04,15.90
2018,06,21,07,05,15.90
2018,06,21,07,06,15.90
2018,06,21,07,07,15.80
2018,06,21,07,08,15.80
2018,06,21,07,09,15.80
2018,06,21,07,10,15.80
2018,06,21,07,11,15.70
2018,06,21,07,12,15.70
2018,06,21,07,13,15.70
2018,06,21,07,14,15.70
2018,06,21,07,15,15.70
2018,06,21,07,16,15.70
2018,06,21,07,17,15.70
2018,06,21,07,18,15.70
2018,06,21,07,19,15.70
2018,06,21,07,20,15.70
2018,06,21,07,21,15.70
2018,06,21,07,22,15.70
2018,06,21,07,23,15.70
2018,06,21,07,24,15.70
2018,06,21,07,25,15.70
2018,06,21,07,26,15.70
2018,06,21,07,27,15.70
2018,06,21,07,28,15.70
2018,06,21,07,29,15.70
2018,06,21,07,30,15.70
2018,06,21,07,31,15.70
2018,06,21,07,32,15.80
2018,06,21,07,33,15.80
2018,06,21,07,34,15.80
2018,06,21,07,35,15.80
2018,06,21,07,36,15.70
2018,06,21,07,37,15.70
2018,06,21,07,38,15.70
2018,06,21,07,39,15.70
2018,06,21,07,40,15.70
2018,06,21,07,41,15.70
2018,06,21,07,42,15.70
2018,06,21,07,43,15.70
2018,06,21,07,44,15.80
2018,06,21,07,45,15.80
2018,06,21,07,46,15.80
2018,06,21,07,47,15.80
2018,06,21,07,48,15.90
2018,06,21,07,49,15.80
2018,06,21,07,50,15.80
2018,06,21,07,51,15.80
2018,06,21,07,52,15.80
2018,06,21,07,53,15.70
2018,06,21,07,54,15.70
2018,06,21,07,55,15.80
2018,06,21,07,56,15.70
2018,06,21,07,57,15.70
2018,06,21,07,58,15.70
2018,06,21,07,59,15.70
2018,06,21,08,00,15.70
2018,06,21,08,01,15.70
2018,06,21,08,02,15.70
2018,06,21,08,03,15.70
2018,06,21,08,04,15.70
2018,06,21,08,05,15.60
2018,06,21,08,06,15.60
2018,06,21,08,07,15.60
2018,06,21,08,08,15.70
2018,06,21,08,09,15.60
2018,06,21,08,10,15.60
2018,06,21,08,11,15.60
2018,06,21,08,12,15.50
2018,06,21,08,13,15.40
2018,06,21,08,14,15.40
2018,06,21,08,15,15.30
2018,06,21,08,16,15.30
2018,06,21,08,17,15.30
2018,06,21,08,18,15.30
2018,06,21,08,19,15.30
2018,06,21,08,20,15.30
2018,06,21,08,21,15.30
2018,06,21,08,22,15.30
2018,06,21,08,23,15.30
2018,06,21,08,24,15.30
2018,06,21,08,25,15.30
2018,06,21,08,26,15.30
2018,06,21,08,27,15.30
2018,06,21,08,28,15.30
2018,06,21,08,29,15.40
2018,06,21,08,30,15.40
2018,06,21,08,31,15.40
2018,06,21,08,32,15.40
2018,06,21,08,33,15.50
2018,06,21,08,34,15.50
2018,06,21,08,35,15.60
2018,06,21,08,36,15.60
2018,06,21,08,37,15.70
2018,06,21,08,38,15.70
2018,06,21,08,39,15.80
2018,06,21,08,40,15.80
2018,06,21,08,41,15.80
2018,06,21,08,42,15.80
2018,06,21,08,43,15.80
2018,06,21,08,44,15.90
2018,06,21,08,45,15.90
2018,06,21,08,46,15.90
2018,06,21,08,47,16.00
2018,06,21,08,48,16.00
2018,06,21,08,49,16.00
2018,06,21,08,50,16.00
2018,06,21,08,51,16.00
2018,06,21,08,52,16.00
2018,06,21,08,53,16.00
2018,06,21,08,54,16.00
2018,06,21,08,55,15.90
2018,06,21,08,56,15.90
2018,06,21,08,57,16.00
2018,06,21,08,58,16.00
2018,06,21,08,59,16.00
2018,06,21,09,00,16.00
2018,06,21,09,01,16.00
2018,06,21,09,02,16.10
2018,06,21,09,03,16.10
2018,06,21,09,04,16.20
2018,06,21,09,05,16.20
2018,06,21,09,06,16.10
2018,06,21,09,07,16.10
2018,06,21,09,08,16.00
2018,06,21,09,09,16.00
2018,06,21,09,10,15.90
2018,06,21,09,11,15.90
2018,06,21,09,12,15.90
2018,06,21,09,13,15.90
2018,06,21,09,14,15.90
2018,06,21,09,15,15.90
2018,06,21,09,16,15.90
2018,06,21,09,17,16.00
2018,06,21,09,18,16.00
2018,06,21,09,19,16.10
2018,06,21,09,20,16.10
2018,06,21,09,21,16.20
2018,06,21,09,22,16.20
2018,06,21,09,23,16.20
2018,06,21,09,24,16.30
2018,06,21,09,25,16.30
2018,06,21,09,26,16.30
2018,06,21,09,27,16.30
2018,06,21,09,28,16.20
2018,06,21,09,29,16.20
2018,06,21,09,30,16.20
2018,06,21,09,31,16.20
2018,06,21,09,32,16.20
2018,06,21,09,33,16.20
2018,06,21,09,34,16.20
2018,06,21,09,35,16.20
2018,06,21,09,36,16.20
2018,06,21,09,37,16.20
2018,06,21,09,38,16.20
2018,06,21,09,39,16.20
2018,06,21,09,40,16.20
2018,06,21,09,41,16.20
2018,06,21,09,42,16.20
2018,06,21,09,43,16.20
2018,06,21,09,44,16.20
2018,06,21,09,45,16.20
2018,06,21,09,46,16.20
2018,06,21,09,47,16.20
2018,06,21,09,48,16.20
2018,06,21,09,49,16.20
2018,06,21,09,50,16.20
2018,06,21,09,51,16.20
2018,06,21,09,52,16.20
2018,06,21,09,53,16.20
2018,06,21,09,54,16.20
2018,06,21,09,55,16.20
2018,06,21,09,56,16.20
2018,06,21,09,57,16.20
2018,06,21,09,58,16.20
2018,06,21,09,59,16.20
2018,06,21,10,00,16.20
2018,06,21,10,01,16.20
2018,06,21,10,02,16.20
2018,06,21,10,03,16.20
2018,06,21,10,04,16.20
2018,06,21,10,05,16.20
2018,06,21,10,06,16.20
2018,06,21,10,07,16.20
2018,06,21,10,08,16.20
2018,06,21,10,09,16.20
2018,06,21,10,10,16.20
2018,06,21,10,11,16.10
2018,06,21,10,12,16.10
2018,06,21,10,13,16.10
2018,06,21,10,14,16.10
2018,06,21,10,15,16.10
2018,06,21,10,16,16.10
2018,06,21,10,17,16.00
2018,06,21,10,18,16.00
2018,06,21,10,19,15.90
2018,06,21,10,20,15.90
2018,06,21,10,21,15.90
2018,06,21,10,22,16.00
2018,06,21,10,23,16.00
2018,06,21,10,24,16.10
2018,06,21,10,25,16.10
2018,06,21,10,26,16.10
2018,06,21,10,27,16.20
2018,06,21,10,28,16.20
2018,06,21,10,29,16.20
2018,06,21,10,30,16.20
2018,06,21,10,31,16.20
2018,06,21,10,32,16.20
2018,06,21,10,33,16.30
2018,06,21,10,34,16.30
2018,06,21,10,35,16.30
2018,06,21,10,36,16.40
2018,06,21,10,37,16.40
2018,06,21,10,38,16.40
2018,06,21,10,39,16.40
2018,06,21,10,40,16.40
2018,06,21,10,41,16.30
2018,06,21,10,42,16.30
2018,06,21,10,43,16.40
2018,06,21,10,44,16.40
2018,06,21,10,45,16.40
2018,06,21,10,46,16.40
2018,06,21,10,47,16.40
2018,06,21,10,48,16.40
2018,06,21,10,49,16.40
2018,06,21,10,50,16.40
2018,06,21,10,51,16.30
2018,06,21,10,52,16.30
2018,06,21,10,53,16.30
2018,06,21,10,54,16.30
2018,06,21,10,55,16.30
2018,06,21,10,56,16.20
2018,06,21,10,57,16.20
2018,06,21,10,58,16.20
2018,06,21,10,59,16.20
2018,06,21,11,00,16.20
2018,06,21,11,01,16.20
2018,06,21,11,02,16.10
2018,06,21,11,03,16.20
2018,06,21,11,04,16.20
2018,06,21,11,05,16.30
2018,06,21,11,06,16.30
2018,06,21,11,07,16.30
2018,06,21,11,08,16.40
2018,06,21,11,09,16.40
2018,06,21,11,10,16.50
2018,06,21,11,11,16.50
2018,06,21,11,12,16.60
2018,06,21,11,13,16.60
2018,06,21,11,14,16.60
2018,06,21,11,15,16.60
2018,06,21,11,16,16.70
2018,06,21,11,17,16.70
2018,06,21,11,18,16.80
2018,06,21,11,19,16.80
2018,06,21,11,20,16.80
2018,06,21,11,21,16.80
2018,06,21,11,22,16.80
2018,06,21,11,23,16.80
2018,06,21,11,24,16.80
2018,06,21,11,25,16.80
2018,06,21,11,26,16.80
2018,06,21,11,27,16.70
2018,06,21,11,28,16.80
2018,06,21,11,29,16.80
2018,06,21,11,30,16.80
2018,06,21,11,31,16.80
2018,06,21,11,32,16.90
2018,06,21,11,33,16.90
2018,06,21,11,34,16.90
2018,06,21,11,35,16.90
2018,06,21,11,36,16.90
2018,06,21,11,37,17.00
2018,06,21,11,38,16.90
2018,06,21,11,39,16.90
2018,06,21,11,40,16.90
2018,06,21,11,41,16.90
2018,06,21,11,42,16.90
2018,06,21,11,43,16.90
2018,06,21,11,44,16.90
2018,06,21,11,45,16.90
2018,06,21,11,46,16.90
2018,06,21,11,47,16.80
2018,06,21,11,48,16.70
2018,06,21,11,49,16.70
2018,06,21,11,50,16.60
2018,06,21,11,51,16.60
2018,06,21,11,52,16.60
2018,06,21,11,53,16.50
2018,06,21,11,54,16.50
2018,06,21,11,55,16.40
2018,06,21,11,56,16.40
2018,06,21,11,57,16.40
2018,06,21,11,58,16.30
2018,06,21,11,59,16.30
2018,06,21,12,00,16.30
2018,06,21,12,01,16.30
2018,06,21,12,02,16.40
2018,06,21,12,03,16.40
2018,06,21,12,04,16.40
2018,06,21,12,05,16.50
2018,06,21,12,06,16.50
2018,06,21,12,07,16.50
2018,06,21,12,08,16.60
2018,06,21,12,09,16.60
2018,06,21,12,10,16.60
2018,06,21,12,11,16.60
2018,06,21,12,12,16.60
2018,06,21,12,13,16.60
2018,06,21,12,14,16.60
2018,06,21,12,15,16.70
2018,06,21,12,16,16.80
2018,06,21,12,17,16.80
2018,06,21,12,18,16.90
2018,06,21,12,19,16.90
2018,06,21,12,20,16.90
2018,06,21,12,21,17.00
2018,06,21,12,22,17.00
2018,06,21,12,23,17.00
2018,06,21,12,24,17.10
2018,06,21,12,25,17.10
2018,06,21,12,26,17.10
2018,06,21,12,27,17.10
2018,06,21,12,28,17.00
2018,06,21,12,29,17.00
2018,06,21,12,30,17.00
2018,06,21,12,31,16.90
2018,06,21,12,32,16.90
2018,06,21,12,33,16.80
2018,06,21,12,34,16.80
2018,06,21,12,35,16.80
2018,06,21,12,36,16.80
2018,06,21,12,37,16.80
2018,06,21,12,38,16.80
2018,06,21,12,39,16.80
2018,06,21,12,40,16.80
2018,06,21,12,41,16.80
2018,06,21,12,42,16.80
2018,06,21,12,43,16.80
2018,06,21,12,44,16.90
2018,06,21,12,45,16.90
2018,06,21,12,46,16.90
2018,06,21,12,47,16.80
2018,06,21,12,48,16.80
2018,06,21,12,49,16.90
2018,06,21,12,50,17.00
2018,06,21,12,51,17.10
2018,06,21,12,52,17.10
2018,06,21,12,53,17.20
2018,06,21,12,54,17.30
2018,06,21,12,55,17.30
2018,06,21,12,56,17.40
2018,06,21,12,57,17.40
2018,06,21,12,58,17.50
2018,06,21,12,59,17.50
2018,06,21,13,00,17.50
2018,06,21,13,01,17.60
2018,06,21,13,02,17.60
2018,06,21,13,03,17.60
2018,06,21,13,04,17.60
2018,06,21,13,05,17.70
2018,06,21,13,06,17.70
2018,06,21,13,07,17.70
2018,06,21,13,08,17.80
2018,06,21,13,09,17.80
2018,06,21,13,10,17.70
2018,06,21,13,11,17.70
2018,06,21,13,12,17.60
2018,06,21,13,13,17.60
2018,06,21,13,14,17.60
2018,06,21,13,15,17.60
2018,06,21,13,16,17.60
2018,06,21,13,17,17.50
2018,06,21,13,18,17.50
2018,06,21,13,19,17.50
2018,06,21,13,20,17.40
2018,06,21,13,21,17.50
2018,06,21,13,22,17.50
2018,06,21,13,23,17.50
2018,06,21,13,24,17.40
2018,06,21,13,25,17.40
2018,06,21,13,26,17.30
2018,06,21,13,27,17.30
2018,06,21,13,28,17.30
2018,06,21,13,29,17.30
2018,06,21,13,30,17.30
2018,06,21,13,31,17.30
2018,06,21,13,32,17.30
2018,06,21,13,33,17.30
2018,06,21,13,34,17.40
2018,06,21,13,35,17.40
2018,06,21,13,36,17.50
2018,06,21,13,37,17.60
2018,06,21,13,38,17.60
2018,06,21,13,39,17.60
2018,06,21,13,40,17.60
2018,06,21,13,41,17.60
2018,06,21,13,42,17.70
2018,06,21,13,43,17.70
2018,06,21,13,44,17.70
2018,06,21,13,45,17.60
2018,06,21,13,46,17.60
2018,06,21,13,47,17.60
2018,06,21,13,48,17.70
2018,06,21,13,49,17.70
2018,06,21,13,50,17.70
2018,06,21,13,51,17.70
2018,06,21,13,52,17.70
2018,06,21,13,53,17.60
2018,06,21,13,54,17.60
2018,06,21,13,55,17.60
2018,06,21,13,56,17.60
2018,06,21,13,57,17.60
2018,06,21,13,58,17.60
2018,06,21,13,59,17.60
2018,06,21,14,00,17.60
2018,06,21,14,01,17.60
2018,06,21,14,02,17.50
2018,06,21,14,03,17.50
2018,06,21,14,04,17.50
2018,06,21,14,05,17.50
2018,06,21,14,06,17.50
2018,06,21,14,07,17.60
2018,06,21,14,08,17.60
2018,06,21,14,09,17.70
2018,06,21,14,10,17.80
2018,06,21,14,11,17.80
2018,06,21,14,12,17.80
2018,06,21,14,13,17.80
2018,06,21,14,14,17.80
2018,06,21,14,15,17.70
2018,06,21,14,16,17.70
2018,06,21,14,17,17.50
2018,06,21,14,18,17.50
2018,06,21,14,19,17.40
2018,06,21,14,20,17.40
2018,06,21,14,21,17.40
2018,06,21,14,22,17.30
2018,06,21,14,23,17.40
2018,06,21,14,24,17.40
2018,06,21,14,25,17.40
2018,06,21,14,26,17.40
2018,06,21,14,27,17.40
2018,06,21,14,28,17.40
2018,06,21,14,29,17.50
2018,06,21,14,30,17.50
2018,06,21,14,31,17.40
2018,06,21,14,32,17.40
2018,06,21,14,33,17.40
2018,06,21,14,34,17.40
2018,06,21,14,35,17.50
2018,06,21,14,36,17.60
2018,06,21,14,37,17.70
2018,06,21,14,38,17.70
2018,06,21,14,39,17.70
2018,06,21,14,40,17.70
2018,06,21,14,41,17.80
2018,06,21,14,42,17.80
2018,06,21,14,43,17.80
2018,06,21,14,44,17.90
2018,06,21,14,45,18.00
2018,06,21,14,46,18.00
2018,06,21,14,47,18.00
2018,06,21,14,48,17.90
2018,06,21,14,49,17.90
2018,06,21,14,50,18.00
2018,06,21,14,51,18.10
2018,06,21,14,52,18.10
2018,06,21,14,53,18.10
2018,06,21,14,54,18.10
2018,06,21,14,55,18.10
2018,06,21,14,56,18.20
2018,06,21,14,57,18.20
2018,06,21,14,58,18.20
2018,06,21,14,59,18.30
2018,06,21,15,00,18.30
2018,06,21,15,01,18.30
2018,06,21,15,02,18.40
2018,06,21,15,03,18.40
2018,06,21,15,04,18.50
2018,06,21,15,05,18.60
2018,06,21,15,06,18.60
2018,06,21,15,07,18.60
2018,06,21,15,08,18.60
2018,06,21,15,09,18.60
2018,06,21,15,10,18.60
2018,06,21,15,11,18.60
2018,06,21,15,12,18.60
2018,06,21,15,13,18.60
2018,06,21,15,14,18.60
2018,06,21,15,15,18.60
2018,06,21,15,16,18.60
2018,06,21,15,17,18.60
2018,06,21,15,18,18.60
2018,06,21,15,19,18.60
2018,06,21,15,20,18.70
2018,06,21,15,21,18.80
2018,06,21,15,22,18.80
2018,06,21,15,23,18.80
2018,06,21,15,24,18.80
2018,06,21,15,25,18.70
2018,06,21,15,26,18.70
2018,06,21,15,27,18.70
2018,06,21,15,28,18.80
2018,06,21,15,29,18.90
2018,06,21,15,30,19.00
2018,06,21,15,31,18.90
2018,06,21,15,32,18.90
2018,06,21,15,33,18.90
2018,06,21,15,34,18.90
2018,06,21,15,35,18.90
2018,06,21,15,36,18.90
2018,06,21,15,37,18.90
2018,06,21,15,38,18.80
2018,06,21,15,39,18.80
2018,06,21,15,40,18.80
2018,06,21,15,41,18.80
2018,06,21,15,42,18.70
2018,06,21,15,43,18.70
2018,06,21,15,44,18.70
2018,06,21,15,45,18.70
2018,06,21,15,46,18.70
2018,06,21,15,47,18.70
2018,06,21,15,48,18.70
2018,06,21,15,49,18.70
2018,06,21,15,50,18.70
2018,06,21,15,51,18.70
2018,06,21,15,52,18.70
2018,06,21,15,53,18.70
2018,06,21,15,54,18.70
2018,06,21,15,55,18.70
2018,06,21,15,56,18.70
2018,06,21,15,57,18.70
2018,06,21,15,58,18.60
2018,06,21,15,59,18.60
2018,06,21,16,00,18.60
2018,06,21,16,01,18.60
2018,06,21,16,02,18.60
2018,06,21,16,03,18.70
2018,06,21,16,04,18.70
2018,06,21,16,05,18.80
2018,06,21,16,06,19.00
2018,06,21,16,07,19.20
2018,06,21,16,08,19.20
2018,06,21,16,09,19.20
2018,06,21,16,10,19.30
2018,06,21,16,11,19.30
2018,06,21,16,12,19.30
2018,06,21,16,13,19.30
2018,06,21,16,14,19.40
2018,06,21,16,15,19.50
2018,06,21,16,16,19.60
2018,06,21,16,17,19.70
2018,06,21,16,18,19.70
2018,06,21,16,19,19.80
2018,06,21,16,20,19.90
2018,06,21,16,21,19.90
2018,06,21,16,22,19.80
2018,06,21,16,23,19.90
2018,06,21,16,24,19.90
2018,06,21,16,25,20.00
2018,06,21,16,26,20.10
2018,06,21,16,27,20.20
2018,06,21,16,28,20.20
2018,06,21,16,29,20.30
2018,06,21,16,30,20.40
2018,06,21,16,31,20.40
2018,06,21,16,32,20.30
2018,06,21,16,33,20.30
2018,06,21,16,34,20.30
2018,06,21,16,35,20.30
2018,06,21,16,36,20.20
2018,06,21,16,37,20.20
2018,06,21,16,38,20.20
2018,06,21,16,39,20.20
2018,06,21,16,40,20.20
2018,06,21,16,41,20.20
2018,06,21,16,42,20.20
2018,06,21,16,43,20.20
2018,06,21,16,44,20.20
2018,06,21,16,45,20.20
2018,06,21,16,46,20.20
2018,06,21,16,47,20.30
2018,06,21,16,48,20.30
2018,06,21,16,49,20.40
2018,06,21,16,50,20.40
2018,06,21,16,51,20.40
2018,06,21,16,52,20.50
2018,06,21,16,53,20.50
2018,06,21,16,54,20.40
2018,06,21,16,55,20.40
2018,06,21,16,56,20.40
2018,06,21,16,57,20.40
2018,06,21,16,58,20.40
2018,06,21,16,59,20.40
2018,06,21,17,00,20.50
2018,06,21,17,01,20.50
2018,06,21,17,02,20.50
2018,06,21,17,03,20.40
2018,06,21,17,04,20.30
2018,06,21,17,05,20.20
2018,06,21,17,06,20.10
2018,06,21,17,07,20.00
2018,06,21,17,08,19.90
2018,06,21,17,09,19.90
2018,06,21,17,10,19.80
2018,06,21,17,11,19.80
2018,06,21,17,12,19.80
2018,06,21,17,13,19.90
2018,06,21,17,14,19.90
2018,06,21,17,15,19.90
2018,06,21,17,16,19.90
2018,06,21,17,17,19.80
2018,06,21,17,18,19.70
2018,06,21,17,19,19.70